Wind_Speed
42 43 43 43 44 45 46 46 46 46 46 47 47 47 48 48 49 48 48 49 49 50 50 51 52 52 52 52 52 52 52 52 53 53 53 54 55 55
44 44 44 45 45 46 47 47 48 47 47 47 48 48 48 49 49 49 49 49 49 49 50 50 51 51 52 52 53 52 53 53 54 54 55 55 55 56
46 46 46 46 47 46 47 47 47 47 47 47 48 48 48 49 49 49 50 49 50 50 50 50 51 52 51 52 52 52 53 53 54 55 55 55 56 56
47 48 48 48 49 48 48 48 48 48 48 47 48 48 49 49 50 50 50 51 50 50 50 50 51 52 52 52 52 52 52 53 53 54 55 56 56 56
49 49 50 50 49 49 48 49 49 49 49 48 48 49 50 50 50 51 51 51 51 51 51 51 51 52 52 52 52 53 53 53 53 54 55 56 56 56
50 50 50 50 50 49 49 49 49 49 49 49 49 49 50 50 50 51 50 51 51 50 51 51 51 52 52 52 51 51 53 53 53 54 55 55 55 55
51 51 50 50 50 50 49 48 48 49 49 49 49 49 48 49 49 50 50 50 50 50 50 50 50 51 52 52 52 51 52 53 53 53 54 54 54 54
50 49 49 49 49 49 49 49 48 48 48 48 48 48 48 48 49 49 48 48 49 49 50 50 51 51 52 53 53 53 52 52 52 52 52 52 52 53
48 48 48 49 49 49 49 49 49 49 49 49 48 49 49 49 48 48 49 50 50 50 51 51 52 52 53 54 54 54 54 52 52 51 51 52 52 53
48 48 49 49 49 49 49 49 50 50 50 50 50 50 50 50 50 50 51 51 51 52 52 52 53 53 54 56 56 55 54 53 52 51 51 51 52 52
49 49 49 49 49 49 49 50 50 50 50 51 51 51 51 51 51 51 51 51 51 52 53 53 53 53 54 55 56 56 55 54 54 53 52 51 50 50
49 49 49 49 49 49 49 50 50 51 51 52 52 52 52 52 52 52 52 52 52 53 54 54 54 55 54 55 55 55 54 54 54 54 52 51 50 50
49 48 48 49 49 49 49 50 50 51 51 51 52 52 52 53 53 53 53 53 53 54 55 56 56 56 56 55 54 54 53 53 53 53 53 52 51 51
48 48 48 48 48 49 49 49 50 50 51 51 52 52 52 53 53 53 53 54 54 54 55 56 56 56 55 53 52 52 52 52 52 52 53 53 52 52
48 47 47 47 48 48 49 50 50 50 50 51 52 52 52 52 53 53 53 53 54 54 54 54 54 54 53 52 51 50 50 50 50 51 51 52 52 51
46 46 46 47 47 47 48 49 49 50 50 50 51 51 51 52 52 53 53 53 53 53 53 53 52 52 51 51 51 50 50 49 49 49 50 51 51 51
44 45 45 45 45 46 46 47 47 48 49 50 50 51 51 52 52 53 53 53 52 52 51 51 50 49 49 49 49 50 50 49 48 48 48 49 50 50
43 44 44 45 45 46 46 46 47 47 48 49 49 50 50 51 51 51 51 51 51 50 50 50 49 48 47 47 48 48 48 48 48 48 48 47 48 49
43 44 44 45 45 46 46 46 47 47 47 48 48 48 49 49 49 49 49 49 50 50 49 49 48 47 46 45 45 47 47 47 48 48 48 48 48 48
44 44 45 45 46 47 47 47 47 47 47 48 48 48 48 48 48 48 48 48 48 48 47 47 47 47 47 46 45 45 46 47 47 48 48 48 48 48
44 45 45 46 47 47 48 48 48 47 47 47 47 47 47 47 47 47 47 46 46 45 44 45 45 46 46 46 45 44 45 46 47 47 47 47 46 46
45 45 46 47 47 47 47 47 47 47 47 47 48 47 47 46 46 46 45 45 44 43 43 43 43 43 44 44 44 44 43 44 44 45 45 46 45 44
44 45 46 46 46 46 46 47 47 47 47 47 47 46 46 45 45 44 43 43 42 41 41 41 41 42 42 42 41 41 41 41 41 41 41 42 43 43
Wind_Direction
270 271 270 271 272 271 270 270 271 271 272 272 273 274 274 275 275 275 274 273 272 272 271 270 269 268 268 268 269 269 268 268 268 269 268 268 269 269
270 271 271 271 272 273 272 271 271 272 272 272 273 274 275 276 277 276 275 274 272 272 272 271 269 269 270 270 270 270 270 271 270 270 270 269 269 270
271 271 272 273 273 273 273 272 272 272 272 273 274 274 275 276 278 277 275 274 273 272 272 271 270 269 271 270 270 270 270 271 271 270 270 269 269 270
271 272 272 273 274 273 273 273 272 272 273 273 274 275 276 277 278 277 276 275 274 273 272 272 271 270 271 270 270 271 271 271 271 271 270 270 270 270
271 272 273 273 274 274 274 273 273 272 273 273 274 276 276 277 278 277 276 275 274 274 273 273 272 272 271 271 271 271 271 272 272 272 273 272 272 271
271 272 272 273 273 274 274 273 273 272 272 272 274 275 276 277 278 278 277 277 275 274 274 273 273 272 272 271 272 272 272 273 273 273 273 273 272 271
271 272 272 272 272 273 273 273 273 272 272 273 273 275 277 278 278 279 278 278 275 274 275 273 274 274 273 274 274 273 273 273 273 273 273 273 272 271
270 271 271 271 272 272 273 273 273 272 272 273 273 274 275 277 278 278 278 278 276 275 275 274 274 275 275 275 276 275 274 273 273 272 272 272 272 272
270 270 270 271 271 271 272 272 272 272 272 273 272 273 275 276 277 278 279 278 277 275 275 275 275 276 277 277 277 277 275 273 272 271 271 271 272 272
271 270 271 271 271 271 270 271 272 272 272 272 272 273 275 276 277 278 279 279 278 276 276 276 276 276 277 278 277 277 275 273 271 271 271 271 272 271
271 271 271 271 271 271 271 271 272 272 272 273 274 274 274 276 277 278 278 278 278 277 277 278 277 278 277 277 277 276 275 273 271 270 271 271 271 271
271 271 271 270 270 271 271 271 271 272 272 274 275 275 275 276 276 277 278 278 279 278 278 278 279 279 278 277 276 275 274 273 271 270 269 270 270 270
270 270 270 270 270 271 272 272 272 273 273 274 275 275 276 276 276 277 278 279 280 280 280 279 279 279 279 277 275 273 273 272 271 270 269 268 269 270
270 271 270 270 271 272 272 273 273 274 274 274 275 276 276 276 276 277 279 280 280 281 281 281 280 279 278 276 274 272 272 272 271 270 269 269 269 271
271 270 270 270 271 272 272 273 273 274 275 275 275 276 276 276 277 277 279 280 281 282 282 282 282 280 278 276 274 272 272 272 271 270 270 269 270 271
271 271 271 272 272 273 273 273 274 274 275 275 276 276 276 277 277 278 279 280 281 283 283 283 282 280 278 277 276 274 273 272 270 270 270 271 271 271
271 271 272 272 272 273 274 274 275 275 275 276 276 277 277 278 278 278 279 280 281 282 282 283 282 281 279 278 276 275 274 272 271 270 271 271 271 271
271 272 272 273 273 274 275 275 275 276 276 277 277 277 278 278 279 279 280 280 281 281 281 282 281 280 279 279 278 277 275 273 272 271 271 270 271 272
271 272 272 273 274 275 276 276 276 277 277 277 278 278 278 278 279 280 280 281 281 281 281 281 281 280 279 278 277 276 275 273 273 272 271 271 271 271
272 273 273 274 275 276 276 277 277 277 277 277 278 278 279 279 279 280 280 281 282 281 281 281 281 281 280 279 277 276 275 275 274 273 273 272 272 272
273 274 274 275 276 276 276 277 277 277 277 277 278 279 279 279 280 280 281 281 282 282 281 281 281 281 281 281 279 277 276 276 276 275 274 273 273 273
275 275 276 276 277 277 276 276 276 276 277 277 278 278 279 280 280 280 281 281 281 281 281 282 282 282 282 283 282 280 278 277 276 276 275 274 274 274
276 277 277 277 277 277 276 276 276 276 276 277 277 278 278 279 280 280 280 280 281 281 282 282 282 282 283 283 283 282 281 279 277 276 276 276 276 276
Height
5656 5656 5656 5656 5655 5655 5655 5655 5656 5656 5656 5654 5654 5653 5653 5652 5652 5651 5651 5651 5650 5650 5651 5651 5651 5652 5653 5653 5653 5654 5655 5655 5656 5656 5657 5657 5658 5658
5645 5645 5644 5644 5643 5643 5642 5642 5642 5643 5643 5642 5641 5640 5640 5639 5638 5638 5637 5637 5637 5637 5637 5637 5637 5638 5638 5638 5638 5639 5640 5640 5640 5641 5641 5641 5641 5642
5633 5633 5632 5632 5631 5630 5630 5629 5629 5629 5630 5630 5629 5628 5627 5626 5625 5624 5623 5623 5623 5623 5623 5623 5623 5623 5623 5623 5623 5624 5624 5625 5625 5625 5624 5625 5625 5625
5621 5620 5620 5619 5618 5618 5617 5616 5616 5616 5617 5617 5616 5615 5614 5613 5612 5611 5610 5609 5609 5609 5609 5609 5609 5609 5608 5608 5608 5609 5609 5609 5609 5609 5609 5609 5609 5609
5608 5608 5607 5606 5606 5605 5604 5603 5603 5603 5603 5603 5603 5602 5601 5600 5599 5597 5596 5595 5595 5595 5595 5595 5594 5594 5593 5593 5593 5594 5594 5594 5594 5593 5592 5592 5592 5592
5595 5594 5594 5593 5592 5591 5591 5590 5590 5590 5590 5590 5590 5589 5588 5586 5585 5584 5583 5581 5581 5581 5580 5580 5580 5579 5579 5579 5579 5579 5578 5578 5577 5577 5576 5576 5575 5575
5581 5581 5580 5579 5578 5578 5577 5577 5577 5577 5577 5577 5577 5576 5575 5573 5572 5570 5569 5568 5567 5567 5567 5566 5566 5566 5565 5564 5563 5563 5563 5562 5561 5561 5560 5560 5559 5559
5568 5567 5566 5565 5564 5564 5564 5564 5564 5564 5564 5563 5563 5562 5562 5560 5559 5557 5556 5555 5555 5555 5553 5552 5551 5551 5550 5549 5548 5548 5547 5547 5546 5545 5545 5544 5544 5543
5553 5553 5552 5551 5550 5550 5550 5550 5550 5550 5550 5550 5550 5549 5548 5548 5546 5545 5543 5541 5540 5539 5539 5539 5537 5536 5535 5534 5533 5532 5532 5531 5530 5530 5529 5529 5528 5527
5539 5539 5538 5537 5537 5536 5537 5537 5536 5536 5536 5536 5536 5536 5534 5533 5533 5532 5530 5528 5526 5525 5524 5525 5523 5522 5520 5518 5516 5516 5515 5515 5514 5513 5513 5513 5512 5512
5525 5524 5524 5524 5523 5523 5523 5523 5523 5522 5522 5521 5521 5521 5520 5519 5518 5517 5516 5514 5513 5511 5509 5509 5508 5507 5505 5502 5500 5499 5498 5498 5498 5497 5497 5497 5497 5496
5510 5510 5510 5509 5509 5508 5509 5509 5509 5508 5508 5507 5507 5506 5506 5505 5503 5503 5501 5500 5498 5497 5494 5493 5492 5490 5490 5488 5485 5483 5482 5481 5481 5481 5481 5481 5481 5481
5496 5496 5495 5495 5495 5494 5495 5495 5495 5494 5494 5493 5492 5492 5491 5490 5488 5487 5486 5484 5483 5481 5479 5478 5476 5473 5472 5472 5470 5467 5466 5465 5465 5465 5465 5465 5464 5464
5481 5481 5481 5481 5481 5481 5480 5480 5480 5480 5479 5478 5478 5477 5476 5475 5473 5472 5470 5468 5467 5465 5463 5461 5460 5457 5455 5454 5453 5452 5450 5449 5449 5450 5449 5449 5448 5448
5467 5467 5467 5467 5467 5466 5466 5466 5465 5465 5465 5464 5463 5462 5461 5460 5458 5457 5455 5453 5451 5449 5447 5444 5443 5441 5439 5438 5438 5436 5435 5434 5433 5433 5433 5433 5433 5432
5453 5453 5453 5453 5453 5452 5452 5451 5451 5451 5450 5449 5448 5447 5446 5444 5443 5442 5440 5438 5436 5434 5431 5429 5426 5425 5424 5422 5421 5421 5420 5419 5419 5418 5418 5418 5417 5416
5439 5439 5439 5439 5439 5438 5438 5437 5437 5436 5435 5435 5433 5432 5430 5429 5428 5426 5425 5423 5421 5419 5416 5414 5411 5410 5408 5407 5406 5405 5404 5404 5403 5403 5403 5403 5402 5401
5426 5426 5426 5425 5425 5424 5424 5423 5422 5421 5420 5419 5418 5417 5415 5414 5412 5411 5409 5407 5406 5404 5402 5399 5397 5396 5395 5393 5392 5390 5389 5389 5388 5388 5387 5388 5388 5387
5413 5413 5413 5412 5411 5411 5410 5409 5408 5407 5406 5404 5403 5402 5400 5399 5397 5396 5394 5392 5391 5389 5386 5384 5382 5381 5380 5380 5379 5375 5374 5374 5373 5373 5372 5372 5373 5372
5400 5399 5399 5398 5397 5396 5395 5394 5393 5392 5391 5390 5388 5387 5386 5384 5383 5381 5380 5378 5376 5374 5372 5370 5368 5366 5365 5365 5365 5363 5359 5358 5358 5358 5357 5357 5357 5356
5386 5385 5384 5383 5382 5381 5380 5380 5379 5377 5376 5375 5374 5372 5371 5369 5368 5367 5365 5363 5362 5360 5358 5356 5354 5352 5350 5350 5350 5349 5347 5343 5342 5342 5342 5342 5342 5342
5372 5371 5370 5368 5367 5366 5365 5364 5363 5362 5361 5360 5359 5358 5356 5355 5354 5352 5351 5349 5348 5346 5345 5343 5340 5338 5337 5336 5335 5334 5333 5331 5329 5327 5326 5325 5325 5327
5357 5356 5355 5354 5352 5351 5350 5349 5348 5347 5346 5345 5344 5343 5342 5341 5339 5338 5337 5335 5334 5333 5331 5330 5328 5326 5324 5322 5321 5320 5319 5317 5316 5315 5314 5311 5310 5310